CW6238 Beemster NL current weather conditions

sailwx.info

Air temperature 1.7° C
Dewpoint 0.8° C

Last reported at 2019-Dec-13 00:59 UTC.
Time now 2019-Dec-13 02:11 UTC

Location: N 59°16' E 017°56'.
View on Google Maps.

See reports from other nearby stations

  
Tides and Currents Weather Stations Pressure Air Temp Water Temp Dewpoint Dewpoint Depression Visibility Wind Speed Wind Dir Waves Ship Positions
date/time (UTC)wind fromknots sea level pressurealtimeterstation pressurevisibilityair tempwater tempwave heightnotes
2019-Dec-13 00:59 1.7
2019-Dec-13 00:45 247 0 gusting 2 1.7
2019-Dec-13 00:44 1.7
2019-Dec-13 00:15 225 0 gusting 2 2.2
2019-Dec-13 00:14 225 1 gusting 4 2.2
2019-Dec-13 00:00 2.2
2019-Dec-12 23:59 225 0 gusting 3 2.2
2019-Dec-12 23:45 247 0 gusting 4 2.2
2019-Dec-12 23:44 2.2
2019-Dec-12 23:30 2.2
2019-Dec-12 23:29 2.2
2019-Dec-12 23:15 2.2
2019-Dec-12 23:14 2.2
2019-Dec-12 23:01 225 0 gusting 3 2.2
2019-Dec-12 22:59 247 0 gusting 5 2.2
2019-Dec-12 22:45 247 0 gusting 2 2.2
2019-Dec-12 22:44 225 0 gusting 4 2.2
2019-Dec-12 22:30 2.2
2019-Dec-12 22:29 2.2
2019-Dec-12 22:14 1.7
2019-Dec-12 22:00 1.7
2019-Dec-12 21:59 1.7
2019-Dec-12 21:45 157 0 gusting 3 1.7
2019-Dec-12 21:44 1.7
2019-Dec-12 21:30 1.7
2019-Dec-12 21:29 1.1
2019-Dec-12 21:14 1.1
2019-Dec-12 21:00 1.1
2019-Dec-12 20:59 1.1
2019-Dec-12 20:45 1.1
2019-Dec-12 20:44 1.1
2019-Dec-12 20:30 135 0 gusting 1 1.7
2019-Dec-12 20:29 1.1
2019-Dec-12 20:15 1.7
2019-Dec-12 20:14 135 0 gusting 1 1.7
2019-Dec-12 20:00 1.1
2019-Dec-12 19:59 135 0 gusting 1 1.1
2019-Dec-12 19:45 1.1
2019-Dec-12 19:44 1.1
2019-Dec-12 19:30 1.1
2019-Dec-12 19:29 1.1
2019-Dec-12 19:15 1.1
2019-Dec-12 19:14 1.1
2019-Dec-12 19:00 157 0 gusting 1 1.1
2019-Dec-12 18:59 1.7
2019-Dec-12 18:45 1.7
2019-Dec-12 18:44 1.7
2019-Dec-12 18:30 135 0 gusting 3 1.7
2019-Dec-12 18:29 090 0 gusting 5 1.7
2019-Dec-12 18:15 112 0 gusting 3 1.7
2019-Dec-12 18:14 135 0 gusting 3 1.7
2019-Dec-12 18:00 135 0 gusting 4 1.7
2019-Dec-12 17:59 112 1 gusting 5 1.7
2019-Dec-12 17:45 135 0 gusting 6 1.7
2019-Dec-12 17:44 112 0 gusting 5 1.7
2019-Dec-12 17:30 135 1 gusting 6 1.7
2019-Dec-12 17:29 135 1 gusting 5 1.7
2019-Dec-12 17:15 090 0 gusting 4 1.7
2019-Dec-12 17:14 135 0 gusting 4 1.7
2019-Dec-12 17:00 135 0 gusting 2 1.7
2019-Dec-12 16:59 135 1 gusting 5 1.7
2019-Dec-12 16:45 112 0 gusting 4 1.7
2019-Dec-12 16:44 135 1 gusting 6 1.7
2019-Dec-12 16:30 135 0 gusting 4 1.7
2019-Dec-12 16:29 135 2 gusting 6 1.7
2019-Dec-12 16:15 135 0 gusting 5 1.7
2019-Dec-12 16:14 112 0 gusting 2 1.7
2019-Dec-12 16:00 135 0 gusting 4 1.7
2019-Dec-12 15:59 135 0 gusting 3 1.7
2019-Dec-12 15:45 135 1 gusting 7 1.7
2019-Dec-12 15:44 135 2 gusting 6 1.7
2019-Dec-12 15:30 135 0 gusting 3 2.2
2019-Dec-12 15:29 112 2 gusting 7 2.2
2019-Dec-12 15:15 157 0 gusting 1 2.2
2019-Dec-12 15:14 135 0 gusting 4 2.2
2019-Dec-12 15:00 135 0 gusting 3 2.2
2019-Dec-12 14:59 112 1 gusting 6 2.2
2019-Dec-12 14:45 112 0 gusting 4 2.2
2019-Dec-12 14:44 157 1 gusting 6 2.2
2019-Dec-12 14:30 135 0 gusting 5 2.2
2019-Dec-12 14:29 157 0 gusting 5 2.2
2019-Dec-12 14:15 112 0 gusting 2 2.2
2019-Dec-12 14:14 157 0 gusting 4 2.2
2019-Dec-12 14:00 135 1 gusting 6 2.2
2019-Dec-12 13:59 135 0 gusting 4 2.2
2019-Dec-12 13:45 135 1 gusting 5 2.2
2019-Dec-12 13:44 112 1 gusting 5 2.2
2019-Dec-12 13:30 135 0 gusting 5 2.2
2019-Dec-12 13:29 112 1 gusting 4 2.2
2019-Dec-12 13:15 202 1 gusting 6 2.8
2019-Dec-12 13:14 112 2 gusting 6 2.8
2019-Dec-12 13:00 225 1 gusting 4 2.8
2019-Dec-12 12:59 112 1 gusting 7 2.8
2019-Dec-12 12:45 135 1 gusting 9 2.8
2019-Dec-12 12:44 112 1 gusting 6 2.8
2019-Dec-12 12:30 135 1 gusting 6 2.8
2019-Dec-12 12:29 135 1 gusting 4 2.8
2019-Dec-12 12:15 135 1 gusting 6 2.8
2019-Dec-12 12:14 247 0 gusting 6 2.8
2019-Dec-12 12:00 135 0 gusting 6 3.3
2019-Dec-12 11:59 135 1 gusting 8 3.3
2019-Dec-12 11:45 112 0 gusting 6 3.3
2019-Dec-12 11:44 112 1 gusting 6 3.3
2019-Dec-12 11:30 112 1 gusting 4 3.3
2019-Dec-12 11:29 135 1 gusting 5 3.3
2019-Dec-12 11:15 112 0 gusting 5 3.3
2019-Dec-12 11:14 135 1 gusting 4 3.3
2019-Dec-12 11:00 112 1 gusting 8 3.3
2019-Dec-12 10:59 270 0 gusting 2 3.3
2019-Dec-12 10:45 112 0 gusting 4 3.3
2019-Dec-12 10:44 135 0 gusting 3 3.3
2019-Dec-12 10:30 202 0 gusting 3 3.3
2019-Dec-12 10:29 225 0 gusting 4 3.3
2019-Dec-12 10:15 3.3
2019-Dec-12 10:14 3.3
2019-Dec-12 10:00 3.3
2019-Dec-12 09:59 3.3
2019-Dec-12 09:45 2.8
2019-Dec-12 09:44 2.8
2019-Dec-12 09:30 247 0 gusting 2 2.8
2019-Dec-12 09:29 2.8
2019-Dec-12 09:15 2.8
2019-Dec-12 09:14 045 0 gusting 2 2.8
2019-Dec-12 09:00 2.8
2019-Dec-12 08:59 2.8
2019-Dec-12 08:45 2.8
2019-Dec-12 08:44 2.8
2019-Dec-12 08:30 135 0 gusting 4 2.8
2019-Dec-12 08:29 2.8
2019-Dec-12 08:15 2.8
2019-Dec-12 08:14 2.8
2019-Dec-12 08:00 2.8
2019-Dec-12 07:59 2.8
2019-Dec-12 07:45 112 0 gusting 2 2.8
2019-Dec-12 07:44 112 0 gusting 4 2.8
2019-Dec-12 07:30 2.8
2019-Dec-12 07:29 135 0 gusting 2 2.8
2019-Dec-12 07:00 2.8
2019-Dec-12 06:59 2.8
2019-Dec-12 06:45 2.8
2019-Dec-12 06:44 135 0 gusting 6 2.8
2019-Dec-12 06:30 247 0 gusting 6 2.8
2019-Dec-12 06:29 2.8
2019-Dec-12 06:15 2.8
2019-Dec-12 06:14 2.8
2019-Dec-12 06:00 2.8
2019-Dec-12 05:59 2.8
2019-Dec-12 05:45 135 0 gusting 2 2.8
2019-Dec-12 05:44 135 0 gusting 4 2.8
2019-Dec-12 05:30 2.8
2019-Dec-12 05:29 2.8
2019-Dec-12 05:15 090 0 gusting 1 2.8
2019-Dec-12 05:14 2.8
2019-Dec-12 05:00 112 0 gusting 2 2.8
2019-Dec-12 04:59 2.8
2019-Dec-12 04:45 2.8
2019-Dec-12 04:44 2.8
2019-Dec-12 04:30 2.8
2019-Dec-12 04:29 2.8
2019-Dec-12 04:15 3.3
2019-Dec-12 04:14 3.3
2019-Dec-12 04:00 3.3
2019-Dec-12 03:59 112 0 gusting 1 3.3
2019-Dec-12 03:45 3.3
2019-Dec-12 03:44 135 0 gusting 4 3.3
2019-Dec-12 03:30 3.3
2019-Dec-12 03:29 112 0 gusting 2 3.3
2019-Dec-12 03:15 3.3
2019-Dec-12 03:14 3.3
2019-Dec-12 02:59 3.3
2019-Dec-12 02:45 3.3
2019-Dec-12 02:44 3.3
2019-Dec-12 02:30 3.3
2019-Dec-12 02:29 3.3
2019-Dec-12 02:15 3.3
2019-Dec-12 02:14 3.3
2019-Dec-12 02:00 3.9
2019-Dec-12 01:59 3.9
2019-Dec-12 01:45 3.9
2019-Dec-12 01:44 3.9
2019-Dec-12 01:30 3.9
2019-Dec-12 01:29 3.9
2019-Dec-12 01:15 3.9
2019-Dec-12 01:14 3.9
2019-Dec-12 01:00 3.9
2019-Dec-12 00:59 3.9
2019-Dec-12 00:45 3.9
2019-Dec-12 00:44 3.9
2019-Dec-12 00:30 3.9
2019-Dec-12 00:29 3.3
2019-Dec-12 00:15 3.3
2019-Dec-12 00:14 135 0 gusting 2 3.3
2019-Dec-12 00:00 112 0 gusting 3 3.3
2019-Dec-11 23:59 135 0 gusting 3 3.3
2019-Dec-11 23:45 3.3
2019-Dec-11 23:44 135 0 gusting 2 3.3
2019-Dec-11 23:30 135 0 gusting 1 3.3
2019-Dec-11 23:29 3.3
2019-Dec-11 23:15 135 0 gusting 2 3.3
2019-Dec-11 23:14 3.3
2019-Dec-11 23:01 3.3
2019-Dec-11 22:59 3.3
2019-Dec-11 22:45 3.3
2019-Dec-11 22:44 3.3
2019-Dec-11 22:30 3.3
2019-Dec-11 22:29 3.3
2019-Dec-11 22:15 3.3
2019-Dec-11 22:14 3.3
2019-Dec-11 22:00 3.3
2019-Dec-11 21:59 225 0 gusting 3 3.3
2019-Dec-11 21:45 3.3
2019-Dec-11 21:44 3.3
2019-Dec-11 21:30 180 0 gusting 2 3.3
2019-Dec-11 21:29 3.3
2019-Dec-11 21:15 3.3
2019-Dec-11 21:14 3.3
2019-Dec-11 21:00 3.3
2019-Dec-11 20:59 3.3
2019-Dec-11 20:45 135 0 gusting 2 3.3
2019-Dec-11 20:44 3.3
2019-Dec-11 20:30 3.3
2019-Dec-11 20:29 3.3
2019-Dec-11 20:15 3.3
2019-Dec-11 20:14 3.3
2019-Dec-11 20:00 3.3
2019-Dec-11 19:59 3.3
2019-Dec-11 19:45 3.3
2019-Dec-11 19:44 3.3
2019-Dec-11 19:30 3.3
2019-Dec-11 19:29 202 0 gusting 2 3.3
2019-Dec-11 19:15 3.3
2019-Dec-11 19:14 3.3
2019-Dec-11 19:00 3.3
2019-Dec-11 18:59 3.3
2019-Dec-11 18:45 3.3
2019-Dec-11 18:44 3.3
2019-Dec-11 18:29 247 1 gusting 9 3.3
2019-Dec-11 18:15 225 0 gusting 3 3.3
2019-Dec-11 18:14 202 0 gusting 2 3.3
2019-Dec-11 18:00 225 1 gusting 6 3.3
2019-Dec-11 17:59 247 0 gusting 4 3.3
2019-Dec-11 17:44 202 0 gusting 6 3.3
2019-Dec-11 17:30 247 1 gusting 5 3.3
2019-Dec-11 17:29 270 0 gusting 3 3.3
2019-Dec-11 17:15 225 0 gusting 2 3.3
2019-Dec-11 17:14 247 0 gusting 3 3.3
2019-Dec-11 17:00 247 1 gusting 3 3.3
2019-Dec-11 16:59 247 1 gusting 6 3.3
2019-Dec-11 16:45 247 1 gusting 5 3.3
2019-Dec-11 16:44 247 1 gusting 5 3.3
2019-Dec-11 16:30 247 1 gusting 5 3.3
2019-Dec-11 16:29 247 1 gusting 5 3.3
2019-Dec-11 16:15 247 1 gusting 5 3.3
2019-Dec-11 16:14 270 0 gusting 4 3.3
2019-Dec-11 16:00 247 2 gusting 8 3.3
2019-Dec-11 15:59 247 1 gusting 4 2.8
2019-Dec-11 15:45 247 1 gusting 5 2.8
2019-Dec-11 15:44 247 1 gusting 6 3.3
2019-Dec-11 15:30 225 0 gusting 3 2.8
2019-Dec-11 15:29 270 1 gusting 4 2.8
2019-Dec-11 15:15 225 1 gusting 5 2.8
2019-Dec-11 15:14 247 0 gusting 4 2.8
2019-Dec-11 15:00 247 0 gusting 5 2.8
2019-Dec-11 14:59 225 0 gusting 2 3.3
2019-Dec-11 14:45 225 0 gusting 2 3.3
2019-Dec-11 14:44 247 0 gusting 2 3.3
2019-Dec-11 14:30 247 0 gusting 3 3.3
2019-Dec-11 14:29 270 1 gusting 5 3.3
2019-Dec-11 14:15 247 1 gusting 5 3.3
2019-Dec-11 14:14 225 1 gusting 4 3.3
2019-Dec-11 14:00 247 0 gusting 4 3.3
2019-Dec-11 13:59 225 1 gusting 6 3.3
2019-Dec-11 13:45 225 1 gusting 5 3.3
2019-Dec-11 13:44 247 1 gusting 6 3.3
2019-Dec-11 13:30 225 1 gusting 5 3.3
2019-Dec-11 13:29 225 1 gusting 6 3.3
2019-Dec-11 13:15 225 2 gusting 7 3.3
2019-Dec-11 13:14 225 1 gusting 7 3.3
2019-Dec-11 13:00 225 1 gusting 5 3.3
2019-Dec-11 12:59 247 1 gusting 4 3.3
2019-Dec-11 12:44 225 2 gusting 5 3.3
2019-Dec-11 12:30 225 1 gusting 4 3.3
2019-Dec-11 12:29 225 2 gusting 11 3.3
2019-Dec-11 12:15 225 2 gusting 6 3.3
2019-Dec-11 12:14 225 1 gusting 4 3.3
2019-Dec-11 12:00 225 1 gusting 5 3.3
2019-Dec-11 11:59 225 2 gusting 6 3.3
2019-Dec-11 11:45 225 2 gusting 7 3.3
2019-Dec-11 11:44 247 2 gusting 6 3.3
2019-Dec-11 11:30 247 1 gusting 8 3.3
2019-Dec-11 11:29 225 2 gusting 6 3.3
2019-Dec-11 11:15 225 2 gusting 8 3.3
2019-Dec-11 11:14 247 2 gusting 6 3.3
2019-Dec-11 11:00 202 1 gusting 6 2.8
2019-Dec-11 10:59 247 2 gusting 6 2.8
2019-Dec-11 10:45 225 2 gusting 6 2.8
2019-Dec-11 10:44 225 2 gusting 9 2.8
2019-Dec-11 10:30 247 2 gusting 5 2.8
2019-Dec-11 10:29 247 3 gusting 9 2.8
2019-Dec-11 10:15 225 2 gusting 11 2.8
2019-Dec-11 10:14 225 2 gusting 10 2.8
2019-Dec-11 10:00 202 2 gusting 7 2.8
2019-Dec-11 09:59 225 3 gusting 10 2.8
2019-Dec-11 09:45 225 2 gusting 6 3.3
2019-Dec-11 09:44 202 1 gusting 6 3.3
2019-Dec-11 09:30 225 3 gusting 11 3.3
2019-Dec-11 09:29 225 2 gusting 9 3.3
2019-Dec-11 09:15 225 2 gusting 6 3.3
2019-Dec-11 09:14 247 3 gusting 10 3.3
2019-Dec-11 09:00 247 3 gusting 11 3.3
2019-Dec-11 08:59 225 2 gusting 6 3.3
2019-Dec-11 08:45 202 3 gusting 9 3.9
2019-Dec-11 08:44 180 2 gusting 9 3.9
2019-Dec-11 08:30 225 3 gusting 13 3.9
2019-Dec-11 08:29 225 2 gusting 6 3.9
2019-Dec-11 08:15 225 3 gusting 9 3.9
2019-Dec-11 08:14 225 2 gusting 8 3.3
2019-Dec-11 08:00 247 3 gusting 11 3.3
2019-Dec-11 07:59 225 2 gusting 7 3.3
2019-Dec-11 07:45 247 3 gusting 16 3.3
2019-Dec-11 07:44 225 3 gusting 10 3.3
2019-Dec-11 07:30 247 3 gusting 9 3.3
2019-Dec-11 07:29 202 4 gusting 14 3.3
2019-Dec-11 07:15 225 4 gusting 13 3.3
2019-Dec-11 07:14 225 3 gusting 10 2.8
2019-Dec-11 07:00 247 4 gusting 9 2.8
2019-Dec-11 06:59 247 3 gusting 13 2.8
2019-Dec-11 06:45 157 3 gusting 13 2.8
2019-Dec-11 06:44 202 2 gusting 12 2.8
2019-Dec-11 06:30 225 4 gusting 14 2.8
2019-Dec-11 06:29 225 3 gusting 7 2.2
2019-Dec-11 06:15 135 4 gusting 12 2.2
2019-Dec-11 06:14 225 3 gusting 8 2.2
2019-Dec-11 06:00 247 3 gusting 10 2.2
2019-Dec-11 05:59 180 1 gusting 7 2.2
2019-Dec-11 05:45 112 3 gusting 9 2.2
2019-Dec-11 05:44 247 4 gusting 13 2.2
2019-Dec-11 05:30 225 3 gusting 12 2.2
2019-Dec-11 05:29 247 3 gusting 12 2.2
2019-Dec-11 05:15 247 3 gusting 10 2.2
2019-Dec-11 05:14 202 3 gusting 9 2.2
2019-Dec-11 05:00 225 6 gusting 20 2.2
2019-Dec-11 04:59 247 4 gusting 13 2.2
2019-Dec-11 04:45 225 4 gusting 13 2.8
2019-Dec-11 04:44 270 5 gusting 17 2.8
2019-Dec-11 04:30 202 4 gusting 15 2.8
2019-Dec-11 04:29 157 5 gusting 12 3.3
2019-Dec-11 04:15 247 4 gusting 13 2.8
2019-Dec-11 04:14 157 4 gusting 11 2.8
2019-Dec-11 04:00 225 3 gusting 15 2.8
2019-Dec-11 03:59 225 4 gusting 15 2.8
2019-Dec-11 03:45 202 3 gusting 13 2.2
2019-Dec-11 03:44 135 2 gusting 13 2.2
2019-Dec-11 03:30 135 2 gusting 12 2.2
2019-Dec-11 03:29 112 2 gusting 8 1.7
2019-Dec-11 03:15 135 1 gusting 5 1.7
2019-Dec-11 03:14 135 1 gusting 6 1.7
2019-Dec-11 03:00 112 1 gusting 6 1.7
2019-Dec-11 02:59 135 1 gusting 7 1.7
2019-Dec-11 02:45 135 1 gusting 7 1.7
2019-Dec-11 02:44 112 0 gusting 4 1.7
2019-Dec-11 02:30 225 1 gusting 6 1.1
2019-Dec-11 02:29 090 0 gusting 4 1.1
2019-Dec-11 02:15 112 0 gusting 4 1.1
2019-Dec-11 02:14 1.1
2019-Dec-11 02:00 112 0 gusting 3 0.6